Location: Wapato
(46.4478°N, 120.4212°W)
Time: 22:27:46
(UTC+00:00)

Vanguard 1 Rocket - Pass Details

Date: 16 May 2026
Orbit: 656 x 4211 km, 34.3° (Epoch: 2 June)

Event Time Altitude Azimuth Distance (km) Brightness Sun altitude
Rises 20:41:49 0° 186° (S) 3,653 10.9 61.4°
Reaches altitude 10° 20:45:43 10° 159° (SSE) 3,162 10.6 61.1°
Maximum altitude 20:49:21 14° 131° (SE) 3,336 10.6 60.8°
Drops below altitude 10° 20:53:57 10° 105° (ESE) 4,215 10.9 60.5°
Sets 21:01:03 0° 85° (E) 6,100 11.4 59.9°
